Regional Weather Roundup
Issued by NWS

Home | Current Version | Previous Version | Graphics & Text | Print | Product List | Glossary On
Versions: 1 2 3 4 5 6 7 8 9 10 11 12 13 14 15 16 17 18 19 20 21 22 23 24 25 26 27 28 29 30 31 32 33 34 35 36 37 38 39 40 41 42 43 44 45 46 47 48 49 50
617
ASUS44 KLIX 171801
RWRLA
LOUISIANA WEATHER ROUNDUP
NATIONAL WEATHER SERVICE NEW ORLEANS LA
100 PM CDT THU APR 17 2014

NOTE: "FAIR" INDICATES FEW OR NO CLOUDS BELOW 12,000 FEET WITH NO
      SIGNIFICANT WEATHER AND/OR OBSTRUCTIONS TO VISIBILITY.
      SKY/WX - SKY CONDITION AND SIGNIFICANT WEATHER.
      TMP - AIR TEMPERATURE.    DP   - DEWPOINT TEMPERATURE.
      RH  - RELATIVE HUMIDITY.  PRES - PRESSURE.
      HX  - HEAT INDEX.         WCI  - WIND CHILL INDEX.

*  THESE STATIONS ARE NOT NWS OR FAA STATIONS AND ARE NOT UNDER
   NWS QUALITY CONTROL.

LAZ040-048-061>063-065-066-069-171900-
SOUTHEAST LOUISIANA

CITY           SKY/WX    TMP DP  RH WIND       PRES   REMARKS
N.O. AUDUBON   NOT AVBL
N.O. INTL ARPT CLOUDY    66  59  78 E18       30.17F
6HR MIN TEMP:  58; 6HR MAX TEMP:  66;

N.O. LAKEFRONT CLOUDY    63  59  87 E12       30.21F
6HR MIN TEMP:  58; 6HR MAX TEMP:  64; 6HR PCP: TRACE;

N.O. DOWNTOWN* CLOUDY    63  55  77 NE10G17   30.20F
6HR MIN TEMP:  57; 6HR MAX TEMP:  64;

SLIDELL        CLOUDY    64  57  78 E9        30.19F
6HR MIN TEMP:  53; 6HR MAX TEMP:  65;

BATON ROUGE    CLOUDY    66  53  63 E6        30.18F
6HR MIN TEMP:  51; 6HR MAX TEMP:  67;

BOOTHVILLE     CLOUDY    67  63  87 NE9       30.16F
6HR MIN TEMP:  57; 6HR MAX TEMP:  71;

BELLE CHASSE   DRIZZLE   65  59  81 NE14      30.18F
6HR MIN TEMP:  55; 6HR MAX TEMP:  67;

BOGALUSA*        N/A     67  56  68 SE8       30.22F
6HR MIN TEMP:  51; 6HR MAX TEMP:  68;

GALLIANO*      NOT AVBL
NEW ROADS*     NOT AVBL
GONZALES*      NOT AVBL
HAMMOND*       NOT AVBL
HOUMA*         CLOUDY    66  57  72 NE12      30.16F
PORT FOURCHON* MOCLDY    68  61  77 NE9       30.16F

$$

LAZ041-044-053-054-171900-
SOUTHWEST LOUISIANA

CITY           SKY/WX    TMP DP  RH WIND       PRES   REMARKS
LAKE CHARLES   CLOUDY    62  52  69 E13       30.15F
6HR MIN TEMP:  53; 6HR MAX TEMP:  62; 6HR PCP: TRACE;

LAFAYETTE      CLOUDY    62  53  72 E6        30.17F
6HR MIN TEMP:  51; 6HR MAX TEMP:  62;

PATTERSON      CLOUDY    63  54  72 NE9       30.20S
6HR MIN TEMP:  55; 6HR MAX TEMP:  64;

SALT POINT       N/A     66  56  70 CALM      30.15F
6HR MIN TEMP:  58; 6HR MAX TEMP:  66;

NEW IBERIA     CLOUDY    63  53  70 E9        30.17F
6HR MIN TEMP:  54; 6HR MAX TEMP:  64;

CHENAULT AIRPK CLOUDY    63  52  67 E7        30.17S

$$

LAZ027-028-171900-
CENTRAL LOUISIANA

CITY           SKY/WX    TMP DP  RH WIND       PRES   REMARKS
FORT POLK      CLOUDY    58  51  78 E5        30.16F
6HR MIN TEMP:  50; 6HR MAX TEMP:  61; 6HR PCP:  0.01;

ALEXANDRIA INT CLOUDY    63  51  65 SE6       30.18F
6HR MIN TEMP:  49; 6HR MAX TEMP:  63;

ALEXANDRIA     CLOUDY    66  49  54 E7        30.19F
6HR MIN TEMP:  42; 6HR MAX TEMP:  67;


$$

LAZ001-002-171900-
NORTHWEST LOUISIANA

CITY           SKY/WX    TMP DP  RH WIND       PRES   REMARKS
SHREVEPORT     CLOUDY    63  47  55 E10       30.19F
6HR MIN TEMP:  45; 6HR MAX TEMP:  64;

BARKSDALE AFB  CLOUDY    63  45  52 E10       30.20F
6HR MIN TEMP:  44; 6HR MAX TEMP:  63;

DTN SHREVEPORT CLOUDY    62  46  55 VRB6      30.21F
6HR MIN TEMP:  42; 6HR MAX TEMP:  63;


$$

LAZ014-016-171900-
NORTHEAST LOUISIANA

CITY           SKY/WX    TMP DP  RH WIND       PRES   REMARKS
MONROE         CLOUDY    65  49  56 VRB7      30.23F
6HR MIN TEMP:  41; 6HR MAX TEMP:  66;

TALLULAH       CLOUDY    66  49  54 SE6       30.23S
6HR MIN TEMP:  47; 6HR MAX TEMP:  67;


$$




USA.gov is the U.S. government's official web portal to all federal, state and local government web resources and services.